This demonstration page uses our WeatherBlox Daily Observations layout. Learn more.

Hourly Observations for March 29, 2018

Temp ( °F °C ) Dew Point ( °F °C ) Humidity (%) Winds ( mph kmh ) Pressure ( in mb ) Visibility ( mi km ) Precip ( " mm )
12:15 am 00:15 Partly Cloudy 36 2.1 33 0.5 89 89 NNE 10 17 30.09 1019 10 16.0934 0 0
12:35 am 00:35 Partly Cloudy 35 1.7 32 0.2 90 90 NNE 10 17 30.09 1019 10 16.0934 0 0
12:55 am 00:55 Partly Cloudy 35 1.6 32 0 89 89 NNE 8 13 30.09 1019 10 16.0934 0 0
1:15 am 01:15 Clear 32 0.2 31 -0.6 94 94 N 7 11 30.09 1019 10 16.0934 0 0
1:35 am 01:35 Clear 32 0.1 31 -0.5 96 96 N 6 9 30.09 1019 10 16.0934 0 0
1:55 am 01:55 Clear 32 0 31 -0.5 96 96 N 7 11 30.09 1019 10 16.0934 0 0
2:15 am 02:15 Clear 31 -0.6 30 -1.2 96 96 N 7 11 30.12 1020 10 16.0934 0 0
2:35 am 02:35 Clear 31 -0.7 30 -1 98 98 N 8 13 30.12 1020 10 16.0934 0 0
2:55 am 02:55 Clear 31 -0.8 30 -1.2 97 97 N 9 15 30.12 1020 10 16.0934 0 0
3:15 am 03:15 Clear 31 -0.7 30 -1 98 98 N 12 19 30.12 1020 10 16.0934 0 0
3:35 am 03:35 Clear 31 -0.8 30 -1 99 99 N 12 19 30.12 1020 10 16.0934 0 0
3:55 am 03:55 Partly Cloudy 30 -1 30 -1.2 99 99 N 10 17 30.12 1020 10 16.0934 0 0
4:15 am 04:15 Cloudy 31 -0.7 31 -0.8 99 99 NNE 14 22 30.12 1020 10 16.0934 0 0
4:35 am 04:35 Cloudy 31 -0.5 31 -0.7 99 99 NNE 16 26 30.15 1021 10 16.0934 0 0
4:55 am 04:55 Cloudy 30 -1.3 29 -1.6 98 98 NNE 22 35 30.15 1021 10 16.0934 0 0
5:15 am 05:15 Cloudy 30 -1.2 29 -1.8 96 96 N 16 26 30.15 1021 10 16.0934 0 0
5:35 am 05:35 Cloudy 30 -1 29 -1.8 94 94 N 15 24 30.15 1021 10 16.0934 0 0
5:55 am 05:55 Cloudy 30 -1 29 -1.7 95 95 N 15 24 30.15 1021 10 16.0934 0 0
6:15 am 06:15 Cloudy 30 -1.2 28 -2.1 94 94 N 15 24 30.15 1021 10 16.0934 0 0
6:35 am 06:35 Cloudy 29 -1.5 28 -2.4 94 94 NNE 12 19 30.15 1021 10 16.0934 0 0
6:55 am 06:55 Mostly Cloudy 29 -1.7 28 -2.5 94 94 NNE 14 22 30.18 1022 10 16.0934 0 0
7:15 am 07:15 Cloudy 29 -1.7 28 -2.5 94 94 NNE 13 20 30.18 1022 10 16.0934 0 0
7:35 am 07:35 Cloudy 28 -2 27 -2.7 95 95 NNE 10 17 30.18 1022 10 16.0934 0 0
7:55 am 07:55 Cloudy 28 -2 27 -2.7 95 95 NNE 8 13 30.18 1022 10 16.0934 0 0
8:15 am 08:15 Cloudy 29 -1.7 27 -2.6 94 94 NNE 8 13 30.18 1022 10 16.0934 0 0
8:35 am 08:35 Cloudy 28 -2 28 -2.5 96 96 N 13 20 30.18 1022 10 16.0934 0 0
8:55 am 08:55 Cloudy 29 -1.9 27 -2.7 94 94 N 12 19 30.21 1023 10 16.0934 0 0
9:15 am 09:15 Cloudy 30 -1.2 28 -2.4 92 92 N 12 19 30.21 1023 10 16.0934 0 0
9:35 am 09:35 Cloudy 30 -1.1 27 -2.6 90 90 N 10 17 30.21 1023 10 16.0934 0 0
9:55 am 09:55 Partly Cloudy 30 -0.9 27 -3 86 86 N 9 15 30.21 1023 10 16.0934 0 0
10:15 am 10:15 Partly Cloudy 31 -0.4 26 -3.3 81 81 NNE 10 17 30.21 1023 10 16.0934 0 0
10:35 am 10:35 Sunny 32 0.1 27 -3 80 80 N 8 13 30.21 1023 10 16.0934 0 0
10:55 am 10:55 Sunny 32 0.1 26 -3.3 78 78 NNE 9 15 30.21 1023 10 16.0934 0 0
11:15 am 11:15 Sunny 34 0.9 26 -3.3 74 74 N 8 13 30.18 1022 10 16.0934 0 0
11:35 am 11:35 Sunny 36 2.2 26 -3.6 66 66 NNE 12 19 30.18 1022 10 16.0934 0 0
11:55 am 11:55 Sunny 36 2.1 26 -3.6 66 66 NNE 7 11 30.18 1022 10 16.0934 0 0
12:15 pm 12:15 Sunny 36 2.1 25 -3.9 65 65 NNE 8 13 30.18 1022 10 16.0934 0 0
12:35 pm 12:35 Sunny 38 3.3 24 -4.2 58 58 N 6 9 30.18 1022 10 16.0934 0 0
12:55 pm 12:55 Sunny 39 4 24 -4.5 54 54 N 8 13 30.15 1021 10 16.0934 0 0
1:15 pm 13:15 Sunny 41 4.9 24 -4.5 51 51 ENE 9 15 30.15 1021 10 16.0934 0 0
1:35 pm 13:35 Sunny 42 5.6 25 -4.1 50 50 N 7 11 30.15 1021 10 16.0934 0 0
1:55 pm 13:55 Sunny 44 6.5 24 -4.2 47 47 N 8 13 30.15 1021 10 16.0934 0 0
2:15 pm 14:15 Partly Cloudy 42 5.8 24 -4.7 47 47 NNE 8 13 30.15 1021 10 16.0934 0 0
2:35 pm 14:35 Cloudy 43 5.9 25 -3.8 50 50 NNE 8 13 30.12 1020 10 16.0934 0 0
2:55 pm 14:55 Mostly Cloudy 44 6.5 24 -4.3 46 46 NNE 7 11 30.09 1019 10 16.0934 0 0
3:15 pm 15:15 Mostly Cloudy 46 7.8 24 -4.5 42 42 N 6 9 30.09 1019 10 16.0934 0 0
3:35 pm 15:35 Cloudy 45 7.3 24 -4.6 43 43 NE 9 15 30.09 1019 10 16.0934 0 0
3:55 pm 15:55 Cloudy 45 7.4 22 -5.6 40 40 ENE 7 11 30.09 1019 10 16.0934 0 0
4:15 pm 16:15 Cloudy 46 7.6 22 -5.7 39 39 NNE 5 7 30.12 1020 10 16.0934 0 0
4:35 pm 16:35 Cloudy 46 7.8 22 -5.4 39 39 NNE 7 11 30.12 1020 10 16.0934 0 0
4:55 pm 16:55 Cloudy 46 7.8 22 -5.6 38 38 N 8 13 30.12 1020 10 16.0934 0 0
5:15 pm 17:15 Cloudy 47 8.2 23 -4.8 40 40 NNE 14 22 30.12 1020 10 16.0934 0 0
5:35 pm 17:35 Cloudy 45 7.2 22 -5.4 41 41 N 13 20 30.12 1020 10 16.0934 0 0
5:55 pm 17:55 Cloudy 46 7.6 23 -4.8 41 41 NNE 15 24 30.12 1020 10 16.0934 0 0
6:15 pm 18:15 Cloudy 44 6.6 23 -5.2 43 43 NNE 16 26 30.18 1022 10 16.0934 0 0
6:35 pm 18:35 Cloudy 43 6.1 22 -5.4 44 44 NNE 12 19 30.18 1022 10 16.0934 0 0
6:55 pm 18:55 Cloudy 42 5.8 22 -5.3 45 45 N 10 17 30.18 1022 10 16.0934 0 0
7:15 pm 19:15 Cloudy 42 5.3 24 -4.4 50 50 NNE 15 24 30.18 1022 10 16.0934 0 0
7:35 pm 19:35 Cloudy 41 5 24 -4.5 51 51 NNE 13 20 30.18 1022 10 16.0934 0 0
7:55 pm 19:55 Mostly Cloudy 39 4.1 25 -3.7 57 57 NNE 14 22 30.18 1022 10 16.0934 0 0
8:15 pm 20:15 Mostly Cloudy 38 3.2 26 -3.5 62 62 NNE 13 20 30.24 1024 10 16.0934 0 0
8:35 pm 20:35 Cloudy 37 3 26 -3.5 63 63 NNE 10 17 30.24 1024 10 16.0934 0 0
8:55 pm 20:55 Cloudy 38 3.2 26 -3.6 61 61 NNE 10 17 30.24 1024 10 16.0934 0 0
9:15 pm 21:15 Cloudy 38 3.1 25 -3.7 61 61 NE 8 13 30.27 1025 10 16.0934 0 0
9:35 pm 21:35 Cloudy 37 3 26 -3.3 64 64 N 6 9 30.27 1025 10 16.0934 0 0
9:55 pm 21:55 Cloudy 36 2.1 26 -3.3 68 68 N 7 11 30.3 1026 10 16.0934 0 0
10:15 pm 22:15 Cloudy 35 1.5 26 -3.5 70 70 NNE 5 7 30.33 1027 10 16.0934 0 0
10:35 pm 22:35 Cloudy 35 1.4 26 -3.4 71 71 N 6 9 30.33 1027 10 16.0934 0 0
10:55 pm 22:55 Mostly Cloudy 34 0.9 26 -3.6 72 72 N 7 11 30.33 1027 10 16.0934 0 0
11:15 pm 23:15 Partly Cloudy 32 0.1 25 -4 74 74 NNW 6 9 30.33 1027 10 16.0934 0 0
11:35 pm 23:35 Clear 31 -0.5 25 -4.1 77 77 N 5 7 30.33 1027 10 16.0934 0 0
11:55 pm 23:55 Clear 31 -0.6 24 -4.3 76 76 N 6 9 30.33 1027 10 16.0934 0 0

Powered by AerisWeather